Vorticity
5 2 7 8 6 7 5 4 1 5 10 2 4 6 2 9 10 0 14 -0 35 16 -13 7 2 2 4 17 8 6 10 3 5 6 6 6 2 6 5 1 7 8 9
6 9 31 17 5 5 5 6 5 5 7 10 5 11 8 8 -9 6 -17 15 48 -7 3 -5 13 4 9 7 13 11 6 2 3 1 4 9 9 5 0 6 8 7 10
8 12 7 20 19 3 5 5 4 10 12 -16 20 3 23 21 48 57 48 38 12 8 5 4 3 1 10 5 11 4 -1 7 6 5 6 6 5 4 4 9 6 10 9
12 9 8 5 5 6 4 6 5 10 -1 -4 4 49 4 2 11 2 4 4 4 10 7 9 7 5 13 -1 25 -14 -8 -1 10 11 -5 3 8 6 5 6 12 10 11
8 5 6 5 4 7 6 4 7 5 5 4 6 4 9 3 1 16 1 3 7 12 11 15 14 4 9 19 -2 -6 -9 1 11 11 9 -0 6 5 8 10 11 10 6
3 4 5 3 5 6 6 7 3 5 4 6 4 4 6 9 8 10 6 10 9 12 6 -3 -3 4 3 31 -18 8 8 8 17 -1 -6 7 4 11 6 11 9 5 4
4 4 3 3 4 2 8 8 10 8 7 6 7 8 10 11 10 6 9 4 22 12 -11 0 29 22 -9 17 1 4 12 -5 13 -0 2 5 10 7 9 8 4 4 5
15 7 8 1 -1 0 7 10 7 6 7 7 7 5 4 3 6 7 7 8 25 -67 5 8 21 -31 1 12 9 -3 4 10 6 5 9 12 8 8 7 6 8 7 6
14 15 13 10 7 7 11 9 8 9 7 4 3 3 7 6 7 6 5 7 14 29 -7 4 4 4 15 -3 4 7 17 -6 9 10 7 3 2 7 5 5 7 8 9
12 11 10 8 8 9 10 7 5 6 7 7 6 5 5 4 7 3 -1 6 8 5 8 7 6 5 -1 13 3 7 11 -1 1 6 10 6 7 6 6 7 14 11 9
8 8 7 7 6 6 4 7 6 8 6 5 5 7 8 8 8 8 8 8 7 6 7 9 9 10 7 17 17 5 3 -0 7 2 2 11 5 5 11 10 8 10 11
8 9 7 5 4 5 7 7 6 4 5 6 8 9 10 11 7 6 7 8 6 4 3 9 8 7 15 3 7 10 6 5 4 2 8 4 8 10 9 10 11 10 9
5 5 3 5 8 13 15 8 4 11 13 13 10 9 8 4 7 13 11 10 6 10 12 10 12 11 8 8 3 9 9 7 10 9 5 9 9 7 11 10 9 8 4
15 14 17 10 6 5 1 5 11 9 9 13 10 3 3 2 10 11 16 14 11 12 10 6 5 4 7 11 9 8 5 3 6 7 8 8 10 11 9 6 5 6 9
8 8 7 5 5 14 11 8 12 14 14 15 15 14 14 14 13 10 9 5 0 1 8 11 7 5 3 5 10 8 6 7 7 6 7 7 6 6 8 12 10 13 17
10 7 6 12 9 11 11 13 10 11 12 11 9 8 8 8 8 4 5 10 15 13 4 4 5 7 7 6 6 6 6 6 6 6 7 10 13 11 12 16 16 16 17
15 12 15 13 11 11 16 18 19 10 6 8 9 8 9 13 15 11 7 9 11 6 3 6 8 4 4 5 6 7 9 12 12 12 12 17 18 16 19 18 16 14 13
9 7 7 12 13 11 10 6 1 -9 1 6 12 13 11 11 10 6 6 6 5 4 5 6 6 6 7 8 11 12 13 14 16 18 18 18 17 15 13 13 15 16 18
8 7 9 2 4 11 10 7 -11 3 8 9 8 7 6 6 5 4 3 4 4 5 6 7 8 9 10 11 13 17 18 17 15 14 13 13 14 15 17 19 20 21 23
7 12 11 7 5 3 5 1 4 6 8 7 6 6 4 4 3 4 5 6 9 11 12 12 13 16 19 20 17 13 12 13 14 16 18 19 19 21 22 24 25 27 33
17 15 7 2 -1 1 5 2 8 7 5 4 3 3 4 4 5 8 10 11 13 15 17 20 21 17 15 16 18 19 20 21 21 22 23 26 29 30 30 32 34 31 30
5 5 4 3 1 1 8 7 7 6 4 4 6 4 6 8 10 12 15 17 20 20 18 17 20 24 24 24 23 24 26 29 32 35 34 34 33 31 29 28 29 28 27
6 -0 2 6 9 8 7 6 4 5 5 4 7 10 13 15 18 22 21 19 22 26 27 26 27 33 38 39 39 38 37 36 35 34 33 30 27 26 27 26 24 22 21
4 6 8 7 7 6 4 5 5 5 9 11 13 17 22 23 19 21 27 28 28 32 37 40 38 36 37 38 39 39 39 36 32 29 27 23 20 21 22 21 19 18 19
8 6 6 6 4 4 5 5 9 10 13 18 23 21 18 22 29 29 33 37 38 37 35 34 34 31 31 29 27 26 24 23 22 21 20 19 19 20 20 18 18 18 19
6 5 4 4 5 5 9 11 14 21 23 22 17 22 27 27 33 36 36 37 34 31 29 27 24 23 21 20 19 19 19 19 18 17 16 16 16 17 17 18 17 18 19
Height
5703 5703 5704 5705 5706 5707 5708 5707 5708 5709 5710 5710 5707 5705 5704 5702 5701 5700 5698 5697 5693 5696 5694 5692 5689 5687 5685 5682 5679 5675 5672 5668 5666 5662 5656 5650 5644 5637 5630 5625 5619 5612 5605
5698 5701 5701 5702 5701 5702 5702 5703 5704 5703 5700 5698 5697 5696 5693 5692 5689 5687 5688 5688 5687 5688 5684 5680 5678 5675 5673 5670 5666 5663 5659 5655 5652 5649 5643 5637 5630 5623 5617 5610 5601 5594 5587
5692 5693 5693 5693 5694 5696 5696 5696 5694 5692 5691 5690 5689 5688 5687 5684 5679 5679 5679 5679 5679 5676 5673 5671 5667 5663 5660 5656 5652 5649 5646 5641 5636 5632 5626 5620 5613 5606 5600 5593 5586 5578 5571
5689 5688 5688 5689 5688 5688 5688 5688 5687 5686 5685 5683 5680 5674 5677 5676 5673 5671 5670 5670 5668 5665 5663 5659 5655 5653 5648 5643 5638 5634 5630 5625 5620 5615 5608 5602 5596 5588 5582 5576 5570 5562 5556
5683 5684 5683 5683 5683 5682 5682 5680 5679 5678 5677 5675 5673 5671 5668 5666 5664 5662 5661 5660 5657 5653 5650 5646 5643 5640 5634 5627 5624 5620 5615 5610 5602 5597 5591 5585 5578 5570 5563 5556 5552 5546 5541
5675 5676 5676 5675 5675 5675 5674 5673 5671 5671 5669 5666 5665 5661 5658 5656 5654 5651 5649 5646 5643 5640 5637 5633 5630 5626 5621 5616 5611 5606 5599 5592 5586 5579 5574 5566 5559 5550 5542 5536 5530 5526 5523
5667 5668 5668 5667 5667 5666 5665 5664 5662 5661 5659 5657 5654 5651 5649 5647 5644 5641 5637 5633 5629 5625 5622 5619 5615 5609 5608 5603 5597 5590 5583 5578 5570 5563 5555 5546 5538 5529 5523 5516 5509 5504 5499
5660 5660 5660 5660 5659 5658 5656 5654 5653 5651 5649 5646 5644 5641 5638 5635 5632 5628 5625 5623 5620 5616 5610 5606 5602 5597 5591 5585 5580 5572 5565 5557 5550 5543 5535 5526 5518 5509 5502 5496 5489 5483 5478
5650 5651 5651 5650 5649 5648 5646 5644 5642 5640 5637 5635 5632 5629 5625 5621 5619 5616 5612 5608 5605 5604 5596 5591 5586 5580 5574 5568 5561 5552 5545 5538 5529 5520 5513 5505 5496 5488 5479 5472 5464 5457 5455
5641 5640 5639 5638 5637 5636 5634 5633 5630 5628 5625 5622 5619 5616 5612 5608 5604 5601 5596 5593 5589 5584 5577 5571 5566 5561 5555 5547 5540 5534 5526 5518 5508 5499 5492 5483 5474 5465 5456 5446 5439 5433 5425
5634 5633 5631 5629 5627 5626 5623 5621 5618 5615 5611 5608 5605 5602 5597 5593 5588 5584 5579 5574 5569 5565 5559 5553 5548 5541 5534 5528 5521 5514 5505 5496 5487 5478 5470 5461 5452 5443 5434 5424 5415 5407 5401
5624 5623 5621 5619 5617 5614 5611 5609 5606 5602 5598 5594 5591 5587 5583 5578 5575 5570 5564 5558 5552 5547 5541 5534 5527 5521 5514 5506 5498 5490 5481 5473 5464 5456 5448 5439 5431 5422 5412 5402 5393 5385 5377
5614 5612 5610 5608 5605 5602 5599 5596 5592 5588 5584 5580 5576 5572 5567 5563 5559 5554 5548 5542 5535 5528 5521 5514 5507 5500 5492 5483 5475 5465 5456 5448 5440 5431 5423 5414 5405 5396 5388 5379 5372 5364 5358
5601 5599 5597 5595 5593 5590 5586 5583 5578 5574 5569 5565 5561 5557 5552 5547 5541 5536 5529 5523 5517 5510 5502 5494 5485 5476 5468 5457 5448 5440 5431 5423 5414 5405 5396 5386 5377 5369 5361 5353 5347 5340 5337
5590 5588 5585 5582 5579 5575 5572 5568 5564 5559 5555 5550 5545 5540 5535 5529 5522 5516 5510 5503 5496 5488 5480 5471 5461 5452 5442 5434 5424 5414 5404 5395 5385 5376 5367 5358 5349 5341 5334 5326 5318 5314 5309
5579 5576 5572 5569 5566 5562 5558 5554 5550 5545 5540 5535 5530 5524 5518 5512 5505 5498 5490 5482 5474 5466 5457 5448 5438 5427 5416 5406 5396 5385 5375 5365 5355 5346 5337 5328 5319 5311 5305 5298 5291 5287 5284
5566 5562 5559 5555 5552 5548 5544 5540 5536 5531 5526 5521 5515 5508 5501 5494 5486 5477 5469 5460 5449 5440 5430 5420 5409 5398 5387 5375 5364 5353 5343 5332 5322 5313 5305 5298 5290 5284 5278 5271 5265 5261 5258
5553 5550 5547 5543 5540 5536 5531 5527 5522 5517 5511 5504 5497 5489 5482 5473 5463 5454 5444 5433 5423 5412 5401 5389 5377 5366 5354 5342 5331 5320 5309 5299 5291 5282 5275 5267 5260 5256 5250 5244 5239 5235 5232
5540 5537 5534 5531 5526 5522 5517 5512 5506 5499 5491 5483 5474 5465 5456 5447 5438 5428 5418 5407 5396 5384 5371 5358 5344 5331 5318 5306 5295 5285 5276 5267 5259 5252 5244 5238 5231 5226 5221 5217 5213 5208 5206
5527 5523 5519 5515 5511 5506 5500 5494 5486 5478 5469 5461 5452 5443 5433 5422 5412 5401 5390 5377 5364 5351 5337 5323 5309 5295 5283 5272 5261 5252 5244 5235 5227 5221 5215 5208 5202 5197 5193 5191 5187 5184 5182
5513 5509 5505 5500 5495 5489 5482 5474 5466 5458 5449 5440 5430 5420 5409 5398 5386 5373 5359 5345 5331 5316 5302 5288 5274 5262 5250 5239 5228 5219 5211 5203 5195 5190 5184 5179 5175 5171 5169 5167 5165 5164 5164
5500 5495 5490 5484 5478 5472 5464 5456 5447 5437 5428 5418 5407 5396 5383 5370 5356 5341 5326 5311 5295 5280 5267 5254 5241 5228 5216 5206 5196 5188 5180 5173 5167 5162 5159 5155 5152 5150 5150 5150 5150 5150 5151
5486 5481 5475 5469 5462 5454 5445 5436 5426 5416 5405 5393 5381 5367 5353 5339 5324 5308 5292 5277 5262 5247 5233 5220 5208 5197 5184 5174 5167 5161 5155 5149 5145 5142 5140 5138 5137 5137 5138 5139 5139 5141 5143
5472 5466 5460 5453 5445 5435 5425 5415 5404 5393 5380 5367 5353 5339 5323 5308 5292 5277 5261 5245 5231 5216 5204 5192 5182 5172 5163 5154 5147 5142 5138 5135 5132 5130 5129 5128 5128 5129 5130 5131 5133 5135 5137
5457 5450 5442 5433 5424 5414 5404 5393 5380 5368 5354 5340 5325 5310 5295 5280 5264 5249 5234 5219 5206 5194 5184 5174 5166 5158 5150 5143 5138 5134 5130 5128 5126 5125 5123 5123 5122 5123 5125 5126 5128 5130 5133
5440 5432 5423 5414 5404 5393 5381 5369 5356 5342 5328 5314 5300 5286 5271 5256 5242 5227 5214 5202 5192 5182 5174 5166 5158 5151 5145 5139 5135 5131 5128 5125 5123 5121 5120 5119 5119 5120 5122 5123 5125 5128 5131